星链-31040 (STARLINK-31040 )

导读

STARLINK-31040是美国SpaceX星链星座的一颗卫星,于2024年1月3日发射升空,隶属于SpaceX打造的近地轨道卫星互联网星座,为全球提供高速低延迟互联网服务。星链通过批量发射卫星组网,持续扩张星座规模,该卫星的入轨进一步完善了星链的全球覆盖能力。

基本信息
目录编号:
58722
目录名称:
STARLINK-31040
国际标识:
2024-002T
轨道中心:
EARTH
卫星名称:
星链-31040
卫星全名:
星链-31040 (STARLINK-31040 )
卫星状态:
在轨 (已飞行966 天)
发射日期:
2024-01-03 UTC
国别 :
美国 (US)
星等 :
--
轨道信息
数据来源 国际轨道数据
星历时间: 2026-08-26T09:15:29+0800
8小时前
查看轨道信息
半长轴: 6840.865km
偏心率: 0.0001455
轨道倾角: 53.157°
近地点辐角 96.566°
升交点赤经 160.557°
平近点角 263.551°
近地点: 461.732km
远地点: 463.724km
周期: 93.848分钟
每日圈数: 15.343918
详细信息
固有亮度:
5
最大亮度:
0.3
卫星平台:
Starlink v2.0 mini
覆盖范围:
全球
运营商:
太空探索技术公司
运营商所在国:
美国
制造商(研发单位):
太空探索技术公司
制造商所在国:
美国
使用方式:
暂无
卫星简介
星链(Starlink)计划是由太空探索技术公司(SpaceX)提出的一个巨型低轨卫星互联网星座项目,计划在2019年至2024年间在太空搭建由约1.2万颗卫星组成的“星链”网络,其中1584颗将部署在地球上空550千米处的近地轨道,并从2020年开始工作。该卫星仍在工作。
2D轨道图
3D轨道图
轨道高度分析图
轨道倾角分析图
轨道综合分析图
查看轨道综合分析图